Total_Precipitation_Accumulation
0.74 0.86 1.06 1.29 1.53 1.80 2.11 2.42 2.66 2.82 2.71 2.47 2.24 2.05 1.89 1.81 1.64 1.54 1.48 1.43 1.43 1.52 1.78 1.69 1.79 1.85 1.79 1.76 1.83 1.83 1.69 1.43 1.64 1.67 1.25 0.83 0.67 0.63 0.46 0.44 0.43 0.38 0.36
0.77 0.99 1.17 1.24 1.42 1.69 2.09 2.36 2.67 2.77 2.57 2.29 2.11 2.03 2.00 1.74 1.53 1.53 1.52 1.52 1.57 1.58 1.66 1.69 1.71 1.74 1.73 1.61 1.58 1.67 1.51 1.28 1.45 1.53 1.43 0.91 0.68 0.55 0.43 0.48 0.52 0.50 0.50
1.18 1.30 1.20 1.22 1.34 1.52 1.76 1.95 2.05 2.02 1.91 1.89 1.93 1.94 1.95 1.73 1.67 1.75 1.80 1.77 1.78 1.74 1.75 1.69 1.58 1.46 1.42 1.33 1.35 1.46 1.45 1.30 1.30 1.49 1.64 1.26 0.88 0.77 0.60 0.58 0.57 0.60 0.64
1.02 1.05 1.13 1.22 1.33 1.45 1.63 1.79 1.77 1.62 1.51 1.56 1.74 1.82 1.79 1.75 1.90 2.14 2.06 1.84 1.69 1.54 1.39 1.28 1.25 1.20 1.20 1.10 1.06 1.16 1.20 1.13 1.09 1.22 1.37 1.44 1.38 1.25 0.81 0.56 0.51 0.59 0.66
0.81 0.84 0.97 1.07 1.11 1.23 1.31 1.47 1.56 1.48 1.44 1.46 1.53 1.64 1.68 1.67 1.68 1.68 1.64 1.53 1.38 1.19 1.02 0.94 0.92 0.91 0.92 0.87 0.84 0.86 0.88 0.92 0.93 1.06 1.23 1.32 1.36 1.35 1.21 0.84 0.76 0.77 0.69
0.74 0.78 0.81 0.85 0.92 1.01 1.01 1.00 1.08 1.16 1.22 1.25 1.29 1.31 1.28 1.25 1.19 1.12 1.09 1.04 0.96 0.79 0.68 0.64 0.66 0.72 0.77 0.76 0.74 0.76 0.76 0.82 0.93 0.97 1.08 1.21 1.20 1.20 1.26 1.05 0.93 0.88 0.76
0.57 0.66 0.68 0.69 0.75 0.80 0.78 0.78 0.83 0.94 0.96 0.91 0.95 0.96 0.95 0.90 0.83 0.83 0.81 0.78 0.72 0.62 0.55 0.53 0.56 0.63 0.70 0.67 0.63 0.64 0.74 0.86 0.94 0.93 1.00 1.13 1.16 1.19 1.28 1.23 1.12 1.03 0.97
0.46 0.55 0.62 0.65 0.65 0.63 0.64 0.66 0.69 0.73 0.71 0.67 0.69 0.70 0.73 0.71 0.67 0.67 0.60 0.57 0.58 0.59 0.57 0.52 0.53 0.54 0.59 0.59 0.61 0.61 0.69 0.81 0.88 0.86 0.99 1.09 1.16 1.29 1.40 1.42 1.39 1.24 1.12
0.45 0.44 0.45 0.49 0.49 0.46 0.46 0.51 0.60 0.64 0.66 0.65 0.63 0.59 0.59 0.57 0.52 0.48 0.46 0.45 0.47 0.50 0.57 0.56 0.57 0.59 0.63 0.65 0.72 0.76 0.84 0.98 1.05 1.10 1.20 1.23 1.20 1.25 1.33 1.39 1.42 1.43 1.27
0.23 0.22 0.22 0.23 0.24 0.27 0.34 0.41 0.45 0.46 0.49 0.51 0.53 0.53 0.49 0.44 0.38 0.35 0.36 0.35 0.37 0.41 0.49 0.56 0.57 0.59 0.60 0.64 0.75 0.93 1.09 1.18 1.23 1.27 1.34 1.38 1.34 1.34 1.41 1.40 1.45 1.53 1.42
0.12 0.16 0.18 0.21 0.23 0.27 0.34 0.42 0.44 0.44 0.46 0.45 0.45 0.45 0.43 0.40 0.35 0.30 0.29 0.30 0.33 0.36 0.40 0.46 0.50 0.53 0.56 0.60 0.68 0.82 1.01 1.11 1.14 1.17 1.23 1.24 1.23 1.22 1.22 1.29 1.40 1.52 1.50
0.15 0.17 0.17 0.23 0.28 0.28 0.29 0.35 0.39 0.44 0.53 0.61 0.69 0.70 0.62 0.53 0.44 0.35 0.30 0.29 0.32 0.35 0.36 0.37 0.39 0.41 0.45 0.52 0.62 0.74 0.85 0.94 0.97 0.97 0.96 0.94 0.92 0.94 0.95 1.02 1.12 1.21 1.38
0.11 0.11 0.14 0.20 0.26 0.30 0.32 0.36 0.39 0.43 0.52 0.67 0.91 1.02 0.94 0.80 0.61 0.43 0.29 0.24 0.24 0.27 0.28 0.30 0.35 0.42 0.53 0.62 0.67 0.71 0.74 0.76 0.80 0.86 0.91 0.84 0.80 0.80 0.82 0.84 0.85 0.90 1.09
0.09 0.08 0.11 0.17 0.22 0.29 0.37 0.42 0.45 0.44 0.50 0.62 0.78 0.85 0.78 0.68 0.55 0.37 0.24 0.19 0.19 0.21 0.25 0.31 0.37 0.45 0.53 0.61 0.66 0.67 0.66 0.62 0.58 0.62 0.67 0.70 0.67 0.66 0.70 0.74 0.74 0.77 0.91
0.10 0.08 0.11 0.16 0.19 0.23 0.30 0.32 0.28 0.23 0.28 0.40 0.46 0.51 0.45 0.35 0.30 0.25 0.20 0.18 0.20 0.21 0.26 0.32 0.38 0.42 0.44 0.45 0.42 0.42 0.41 0.40 0.37 0.36 0.39 0.45 0.51 0.53 0.55 0.58 0.69 0.75 0.81
0.08 0.08 0.11 0.16 0.17 0.16 0.17 0.13 0.12 0.13 0.17 0.24 0.28 0.34 0.36 0.29 0.23 0.19 0.16 0.15 0.18 0.22 0.27 0.32 0.37 0.38 0.33 0.37 0.28 0.20 0.20 0.25 0.29 0.32 0.34 0.35 0.38 0.42 0.43 0.44 0.52 0.65 0.73
0.03 0.03 0.06 0.08 0.06 0.05 0.05 0.06 0.07 0.11 0.17 0.22 0.27 0.35 0.37 0.33 0.29 0.21 0.19 0.19 0.21 0.23 0.26 0.27 0.27 0.29 0.33 0.31 0.24 0.15 0.15 0.19 0.22 0.26 0.29 0.27 0.27 0.31 0.33 0.34 0.35 0.38 0.47
0.02 0.01 0.01 0.01 0.01 0.01 0.02 0.03 0.05 0.10 0.15 0.21 0.26 0.31 0.36 0.34 0.31 0.31 0.32 0.33 0.31 0.29 0.28 0.27 0.26 0.31 0.32 0.27 0.22 0.17 0.15 0.21 0.23 0.25 0.27 0.26 0.23 0.23 0.27 0.32 0.31 0.29 0.29
0.01 0.01 0.01 0.01 0.01 0.01 0.02 0.04 0.08 0.10 0.13 0.20 0.28 0.32 0.37 0.38 0.37 0.38 0.40 0.41 0.40 0.36 0.33 0.31 0.33 0.36 0.37 0.30 0.22 0.18 0.20 0.27 0.28 0.29 0.26 0.25 0.23 0.21 0.19 0.26 0.32 0.34 0.32
0.00 0.01 0.01 0.01 0.01 0.03 0.06 0.10 0.12 0.14 0.18 0.23 0.30 0.36 0.41 0.45 0.45 0.47 0.47 0.46 0.49 0.43 0.37 0.34 0.36 0.40 0.46 0.42 0.28 0.23 0.25 0.33 0.35 0.40 0.34 0.26 0.22 0.22 0.20 0.23 0.28 0.30 0.31
0.01 0.01 0.02 0.03 0.05 0.09 0.13 0.15 0.16 0.18 0.19 0.22 0.28 0.38 0.44 0.50 0.53 0.58 0.60 0.59 0.58 0.56 0.52 0.45 0.43 0.47 0.50 0.51 0.35 0.26 0.31 0.41 0.49 0.52 0.43 0.35 0.26 0.22 0.23 0.24 0.29 0.28 0.29
0.01 0.01 0.02 0.04 0.06 0.11 0.15 0.18 0.19 0.19 0.21 0.26 0.34 0.41 0.46 0.44 0.47 0.63 0.68 0.71 0.73 0.69 0.65 0.60 0.53 0.54 0.57 0.53 0.43 0.31 0.29 0.41 0.59 0.68 0.61 0.51 0.40 0.31 0.28 0.26 0.27 0.25 0.25
0.02 0.03 0.04 0.06 0.10 0.14 0.20 0.25 0.24 0.27 0.29 0.33 0.40 0.45 0.47 0.51 0.60 0.69 0.73 0.77 0.82 0.80 0.74 0.72 0.68 0.65 0.68 0.62 0.44 0.35 0.32 0.37 0.55 0.72 0.74 0.62 0.48 0.41 0.36 0.31 0.30 0.29 0.28
0.04 0.05 0.07 0.09 0.13 0.17 0.23 0.30 0.35 0.39 0.41 0.42 0.43 0.46 0.51 0.53 0.58 0.69 0.75 0.80 0.85 0.89 0.86 0.82 0.80 0.80 0.79 0.73 0.60 0.47 0.40 0.42 0.52 0.65 0.72 0.65 0.59 0.52 0.50 0.41 0.34 0.32 0.35
0.05 0.07 0.12 0.16 0.18 0.23 0.29 0.33 0.40 0.47 0.51 0.51 0.49 0.49 0.52 0.59 0.66 0.71 0.76 0.75 0.81 0.79 0.81 0.82 0.85 0.88 0.87 0.71 0.62 0.61 0.55 0.60 0.67 0.74 0.88 0.81 0.74 0.66 0.59 0.51 0.45 0.42 0.43
0.08 0.11 0.14 0.17 0.20 0.25 0.33 0.36 0.45 0.54 0.62 0.64 0.64 0.60 0.56 0.62 0.68 0.73 0.70 0.61 0.56 0.54 0.53 0.56 0.60 0.64 0.59 0.52 0.46 0.47 0.48 0.54 0.64 0.72 0.90 0.90 0.83 0.78 0.70 0.60 0.53 0.51 0.48